Tracking 28790 objects as of 19-Apr-2024
HD Live streaming from Space Station
objects crossing your sky now

FENGYUN 1C DEB

Track FENGYUN 1C DEB now!
10-day predictions


NORAD ID: 31224
Int'l Code: 1999-025BLE
Perigee: 693.7 km
Apogee: 930.1 km
Inclination: 98.4 °
Period: 101.0 minutes
Semi major axis: 7182 km
RCS: 0.0105 m2 (small)
Launch date: May 10, 1999
Source: People's Republic of China (PRC)
Launch site: Taiyaun Space Center, China (TSC)

Note: This is SATELLITE DEBRIS
Your satellite tracking list
Your tracking list is empty




NASA's NSSDC Master Catalog

Two Line Element Set (TLE):
1 31224U 99025BLE 24101.80105715  .00000829  00000-0  31594-3 0  9996
2 31224  98.3570 113.7293 0164510 164.0208  11.0742 14.26111854605335
Source of the keplerian elements: AFSPC